Weather in Barano-Orenburgskoye

Russia / Primorsky Krai     44°22′09″N   131°27′02″E
temp.,
°C
wind,
m/s
gust,
m/s
humid.,
%
clouds,
%
prec.,
mm/h
press.,
hPa
HPBL,
m
23 june, wed
wed2301:00+13w11850 0.0 101211
04:00+12w11920 0.0 101210
07:00+14wnw11850 0.0 101236
10:00+21ene01564 0.0 1012592
13:00+25ne22410 0.0 10101468
16:00+26ene32350 0.0 10091748
19:00+23ese23580 0.0 1009155
22:00+16s22838 0.0 101027
24 june, thu
thu2401:00+14ssw11875 0.0 101015
04:00+13ssw11885 0.0 101013
07:00+15ssw128126 0.0 101048
10:00+23s1154100 0.0 1009486
13:00+28se234058 0.0 10081904
16:00+17nnw3695100 3.3 1009187
19:00+17nw4896100 15.6 1009256
22:00+16ssw2396100 15.9 100959
25 june, fri
fri2501:00+15ssw119497 0.0 100913
04:00+14ssw239687 0.0 100950
07:00+15ssw22968 0.0 100973
10:00+22s22695 0.0 1008430
13:00+27sse44523 0.0 10081026
16:00+27sse565352 0.0 1006919
19:00+21se36752 0.0 1007340
22:00+15sse359595 0.0 1008135
26 june, sat
sat2601:00+14s3698100 0.0 1009133
04:00+14s3699100 0.0 1009148
07:00+15s259799 0.0 1009180
10:00+19s4777100 0.0 1010564
13:00+23s6759100 0.0 10091036
16:00+23sse4764100 0.0 1008981
19:00+20sse41077100 0.0 1008463
22:00+17sse3887100 0.0 1010252
27 june, sun
sun2701:00+15s2695100 0.0 1009177
04:00+14s2497100 0.0 1009117
07:00+15s2492100 0.0 1010155
10:00+19s3376100 0.1 1009551
13:00+21s3480100 2.3 1008682
16:00+22sse446169 2.6 1007865
19:00+19sse467098 0.0 1007441
22:00+13s249669 0.1 100897